When you browse on this site, cookies collect data to enhance your experience and personalize the content and advertising you see.
Visit our Privacy Policy to learn more. By continuing to use the site, you agree to this use of cookies and data.
  • In United Kingdom
  • List of Countries
  • For 7 days
  • Water Temperature
  • Satellite Maps
  • Weather Map
  • Weather Widgets
  • user-avatar
    Login

    Hourly Weather Montevarchi

    Today, 23 May, Thursday

    Time Temperature Precipitation Wind Pressure Humidity
    00:00 +12°C° 0 mm 0 mps 747 mmHg 91%
    01:00 +12°C° 0 mm 0 mps 747 mmHg 92%
    02:00 +12°C° 0 mm 0 mps 747 mmHg 92%
    03:00 +11°C° 0 mm 0 mps 747 mmHg 93%
    04:00 +11°C° 0 mm 0 mps 747 mmHg 93%
    05:00 +12°C° 0 mm 0 mps 747 mmHg 91%
    06:00 +13°C° 0 mm 0 mps 747 mmHg 89%
    07:00 +15°C° 0 mm 0 mps 748 mmHg 87%
    08:00 +16°C° 0 mm 0 mps 748 mmHg 81%
    09:00 +20°C° 0 mm 1 mps 748 mmHg 74%
    10:00 +22°C° 0 mm 1 mps 748 mmHg 67%
    11:00 +21°C° 0.4 mm 2 mps 748 mmHg 68%
    12:00 +23°C° 0.4 mm 2 mps 748 mmHg 68%
    13:00 +23°C° 0.4 mm 2 mps 748 mmHg 68%
    14:00 +22°C° 1 mm 3 mps 747 mmHg 70%
    15:00 +22°C° 1 mm 3 mps 747 mmHg 73%
    16:00 +22°C° 1 mm 3 mps 747 mmHg 75%
    17:00 +21°C° 0.4 mm 3 mps 747 mmHg 79%
    18:00 +19°C° 0.4 mm 2 mps 746 mmHg 82%
    19:00 +18°C° 0.4 mm 2 mps 746 mmHg 86%
    20:00 +18°C° 0 mm 1 mps 746 mmHg 88%
    21:00 +16°C° 0 mm 1 mps 747 mmHg 90%
    22:00 +14°C° 0 mm 1 mps 747 mmHg 91%
    23:00 +13°C° 0 mm 0 mps 747 mmHg 92%

    Tomorrow, 24 May, Friday

    Time Temperature Precipitation Wind Pressure Humidity
    00:00 +12°C° 0 mm 0 mps 747 mmHg 92%
    01:00 +12°C° 0 mm 0 mps 747 mmHg 93%
    02:00 +12°C° 0 mm 0 mps 746 mmHg 93%
    03:00 +11°C° 0 mm 0 mps 746 mmHg 93%
    04:00 +11°C° 0 mm 0 mps 746 mmHg 93%
    05:00 +12°C° 0 mm 0 mps 746 mmHg 91%
    06:00 +14°C° 0 mm 0 mps 746 mmHg 89%
    07:00 +15°C° 0 mm 0 mps 747 mmHg 87%
    08:00 +19°C° 0 mm 1 mps 747 mmHg 80%
    09:00 +21°C° 0 mm 1 mps 747 mmHg 73%
    10:00 +22°C° 0 mm 1 mps 747 mmHg 66%
    11:00 +23°C° 0 mm 2 mps 747 mmHg 63%
    12:00 +24°C° 0 mm 2 mps 747 mmHg 61%
    13:00 +25°C° 0 mm 3 mps 746 mmHg 58%
    14:00 +25°C° 0 mm 3 mps 746 mmHg 59%
    15:00 +25°C° 0 mm 3 mps 746 mmHg 59%
    16:00 +25°C° 0 mm 3 mps 745 mmHg 60%
    17:00 +22°C° 0 mm 3 mps 745 mmHg 66%
    18:00 +20°C° 0 mm 2 mps 745 mmHg 73%
    19:00 +19°C° 0 mm 2 mps 745 mmHg 79%
    20:00 +18°C° 0 mm 1 mps 745 mmHg 81%
    21:00 +16°C° 0 mm 1 mps 745 mmHg 84%
    22:00 +13°C° 0 mm 0 mps 745 mmHg 86%
    23:00 +13°C° 0 mm 0 mps 745 mmHg 86%

    Day after tomorrow, 25 May, Saturday

    Time Temperature Precipitation Wind Pressure Humidity
    00:00 +12°C° 0 mm 0 mps 745 mmHg 85%
    01:00 +12°C° 0 mm 0 mps 745 mmHg 85%
    02:00 +12°C° 0 mm 0 mps 745 mmHg 85%
    03:00 +11°C° 0 mm 0 mps 745 mmHg 85%
    04:00 +12°C° 0 mm 1 mps 745 mmHg 85%
    05:00 +14°C° 0 mm 1 mps 745 mmHg 81%
    06:00 +15°C° 0 mm 1 mps 745 mmHg 78%
    07:00 +18°C° 0 mm 1 mps 746 mmHg 74%
    08:00 +20°C° 0 mm 1 mps 746 mmHg 68%
    09:00 +22°C° 0 mm 1 mps 746 mmHg 62%
    10:00 +24°C° 0 mm 1 mps 746 mmHg 56%
    11:00 +25°C° 0 mm 1 mps 746 mmHg 53%
    12:00 +25°C° 0 mm 1 mps 746 mmHg 51%
    13:00 +26°C° 0 mm 1 mps 746 mmHg 48%
    14:00 +26°C° 0.3 mm 1 mps 745 mmHg 52%
    15:00 +25°C° 0.3 mm 1 mps 745 mmHg 57%
    16:00 +24°C° 0.3 mm 1 mps 745 mmHg 61%
    17:00 +23°C° 0.5 mm 1 mps 745 mmHg 68%
    18:00 +22°C° 0.5 mm 1 mps 745 mmHg 75%
    19:00 +20°C° 0.5 mm 1 mps 744 mmHg 82%
    20:00 +19°C° 0.1 mm 1 mps 745 mmHg 84%
    21:00 +18°C° 0.1 mm 1 mps 745 mmHg 87%
    22:00 +18°C° 0.1 mm 1 mps 745 mmHg 89%
    23:00 +16°C° 0.2 mm 1 mps 745 mmHg 90%

    26 May, Sunday

    Time Temperature Precipitation Wind Pressure Humidity
    00:00 +15°C° 0.2 mm 0 mps 745 mmHg 91%
    01:00 +15°C° 0.2 mm 0 mps 745 mmHg 92%
    02:00 +15°C° 0.3 mm 1 mps 744 mmHg 93%
    03:00 +15°C° 0.3 mm 1 mps 744 mmHg 93%
    04:00 +15°C° 0.3 mm 1 mps 744 mmHg 94%
    05:00 +15°C° 0.3 mm 1 mps 744 mmHg 93%
    06:00 +16°C° 0.3 mm 1 mps 744 mmHg 92%
    07:00 +16°C° 0.3 mm 1 mps 744 mmHg 91%
    08:00 +18°C° 0.3 mm 2 mps 744 mmHg 87%
    09:00 +19°C° 0.3 mm 3 mps 744 mmHg 84%
    10:00 +20°C° 0.3 mm 4 mps 744 mmHg 80%
    11:00 +20°C° 0.2 mm 4 mps 744 mmHg 78%
    12:00 +21°C° 0.2 mm 4 mps 744 mmHg 75%
    13:00 +21°C° 0.2 mm 5 mps 744 mmHg 73%
    14:00 +22°C° 0.1 mm 5 mps 743 mmHg 70%
    15:00 +22°C° 0.1 mm 5 mps 743 mmHg 67%
    16:00 +22°C° 0.1 mm 5 mps 743 mmHg 64%
    17:00 +21°C° 0.2 mm 4 mps 742 mmHg 70%
    18:00 +20°C° 0.2 mm 3 mps 742 mmHg 76%
    19:00 +18°C° 0.2 mm 2 mps 742 mmHg 81%
    20:00 +18°C° 0.5 mm 2 mps 742 mmHg 85%
    21:00 +18°C° 0.5 mm 1 mps 742 mmHg 88%
    22:00 +16°C° 0.5 mm 1 mps 743 mmHg 92%
    23:00 +16°C° 1.5 mm 1 mps 742 mmHg 92%

    27 May, Monday

    Time Temperature Precipitation Wind Pressure Humidity
    00:00 +16°C° 1.5 mm 1 mps 742 mmHg 93%
    01:00 +16°C° 1.5 mm 1 mps 742 mmHg 94%
    02:00 +16°C° 1.5 mm 1 mps 741 mmHg 94%
    03:00 +16°C° 1.5 mm 1 mps 741 mmHg 94%
    04:00 +16°C° 1.5 mm 1 mps 741 mmHg 94%
    05:00 +16°C° 0.6 mm 1 mps 741 mmHg 93%
    06:00 +18°C° 0.6 mm 1 mps 741 mmHg 92%
    07:00 +18°C° 0.6 mm 1 mps 741 mmHg 91%
    08:00 +19°C° 0.1 mm 1 mps 741 mmHg 86%
    09:00 +19°C° 0.1 mm 2 mps 741 mmHg 82%
    10:00 +20°C° 0.1 mm 2 mps 741 mmHg 77%
    11:00 +21°C° 1.3 mm 2 mps 740 mmHg 78%
    12:00 +21°C° 1.3 mm 3 mps 740 mmHg 78%
    13:00 +21°C° 1.3 mm 4 mps 740 mmHg 79%
    14:00 +21°C° 0.6 mm 3 mps 740 mmHg 79%
    15:00 +21°C° 0.6 mm 3 mps 740 mmHg 79%
    16:00 +20°C° 0.6 mm 3 mps 739 mmHg 79%
    17:00 +20°C° 0.5 mm 2 mps 739 mmHg 81%
    18:00 +19°C° 0.5 mm 2 mps 739 mmHg 83%
    19:00 +19°C° 0.5 mm 1 mps 739 mmHg 85%
    20:00 +18°C° 0 mm 1 mps 740 mmHg 87%
    21:00 +16°C° 0 mm 1 mps 740 mmHg 89%
    22:00 +14°C° 0 mm 0 mps 740 mmHg 90%
    23:00 +14°C° 0 mm 0 mps 740 mmHg 91%

    28 May, Tuesday

    Time Temperature Precipitation Wind Pressure Humidity
    00:00 +13°C° 0 mm 0 mps 740 mmHg 91%
    01:00 +13°C° 0 mm 0 mps 739 mmHg 92%
    02:00 +13°C° 0 mm 0 mps 739 mmHg 93%
    03:00 +14°C° 0 mm 1 mps 739 mmHg 94%
    04:00 +14°C° 0 mm 1 mps 739 mmHg 95%
    05:00 +15°C° 0 mm 1 mps 739 mmHg 94%
    06:00 +16°C° 0 mm 1 mps 739 mmHg 93%
    07:00 +17°C° 0 mm 2 mps 740 mmHg 92%
    08:00 +18°C° 0.3 mm 2 mps 740 mmHg 89%
    09:00 +19°C° 0.3 mm 2 mps 740 mmHg 86%
    10:00 +20°C° 0.3 mm 3 mps 740 mmHg 84%
    11:00 +20°C° 0.9 mm 3 mps 740 mmHg 81%
    12:00 +21°C° 0.9 mm 4 mps 740 mmHg 78%
    13:00 +22°C° 0.9 mm 4 mps 740 mmHg 75%
    14:00 +22°C° 1 mm 4 mps 740 mmHg 75%
    15:00 +22°C° 1 mm 4 mps 740 mmHg 74%
    16:00 +22°C° 1 mm 4 mps 740 mmHg 74%
    17:00 +20°C° 1.2 mm 3 mps 740 mmHg 78%
    18:00 +19°C° 1.2 mm 3 mps 740 mmHg 81%
    19:00 +18°C° 1.2 mm 2 mps 741 mmHg 85%
    20:00 +17°C° 0.3 mm 2 mps 741 mmHg 88%
    21:00 +18°C° 0.3 mm 1 mps 741 mmHg 91%
    22:00 +16°C° 0.3 mm 1 mps 742 mmHg 94%
    23:00 +16°C° 0.3 mm 1 mps 742 mmHg 94%
    Show more